Wind_Speed
19 19 19 19 19 18 17 16 17 17 15 14 12 11 10 10 10 11 12 11 10 9 9 10 10 11 12 12 12 12 13 12 13 13 14 14 14 15 16 16 16 16 15 14 13 12 12 13 14 16 17 18 18 18 18 17 16 16 15 15 14 14 15 15 15 16 16 16 16
19 18 18 19 19 18 17 16 16 16 15 13 12 11 11 12 12 13 13 12 10 10 9 9 10 11 12 12 12 12 12 12 13 13 13 13 13 14 14 15 14 13 13 13 13 13 14 15 16 17 17 18 18 17 17 16 15 15 14 14 14 14 15 15 15 15 15 15 15
18 18 18 18 19 19 18 17 17 17 16 14 13 12 12 13 13 14 13 11 10 10 9 9 10 11 12 12 12 12 13 13 13 13 13 13 14 14 14 14 14 14 14 14 14 14 15 16 17 17 17 16 16 15 14 14 13 13 13 13 14 14 14 14 14 14 14 14 14
18 17 17 17 18 19 19 19 18 17 16 15 14 13 13 13 14 14 13 11 10 10 9 10 11 11 12 12 13 13 13 13 13 13 14 14 14 14 14 14 14 14 14 14 14 14 15 15 16 15 15 13 13 12 11 11 11 12 12 13 13 13 14 14 14 14 13 13 13
17 17 16 16 17 18 19 19 18 17 17 17 15 13 12 13 14 14 13 12 11 10 10 11 11 11 11 12 13 13 13 12 12 13 14 14 14 14 14 13 13 13 14 14 13 13 14 14 14 13 12 11 11 11 11 11 12 12 13 14 14 14 13 13 13 13 12 12 12
18 17 16 16 16 17 18 18 17 17 16 17 16 14 12 13 13 13 12 12 12 11 11 12 11 11 11 12 13 13 12 12 11 12 12 13 13 13 13 13 13 13 12 12 12 12 12 12 11 11 10 10 10 11 12 12 13 13 14 14 14 14 13 13 13 13 12 12 13
18 17 16 16 16 16 16 15 14 14 14 15 16 15 13 13 13 13 13 12 12 12 11 11 11 11 12 13 13 13 12 11 11 11 11 11 11 12 12 12 12 11 11 11 11 11 11 10 10 9 10 10 10 11 12 12 13 13 13 13 14 14 14 13 14 14 14 14 15
17 17 17 16 16 15 14 13 12 12 12 12 13 13 13 13 13 13 13 12 11 11 11 11 11 12 13 14 14 13 12 10 10 10 10 10 10 10 10 10 10 10 9 9 9 9 9 9 9 9 10 10 11 11 11 11 12 12 12 12 13 14 14 14 14 15 16 17 17
18 17 17 16 16 14 13 12 11 10 10 10 10 11 12 12 12 12 12 11 11 11 12 13 13 14 15 15 14 13 11 10 10 10 11 11 10 10 10 9 9 8 8 8 8 8 8 9 9 9 10 10 11 11 10 10 10 11 11 11 12 13 13 14 14 15 16 17 17
19 18 18 17 16 14 13 12 11 10 9 9 10 11 12 12 12 11 11 11 11 12 13 14 15 15 14 14 14 13 12 11 11 11 11 11 10 10 9 9 8 7 7 7 7 7 8 8 9 9 10 10 10 10 10 10 10 10 11 11 12 12 12 12 13 13 14 15 16
20 20 18 17 16 15 14 13 12 11 11 11 12 13 14 13 12 11 11 12 13 13 14 15 14 13 13 12 12 11 11 11 11 10 10 9 9 9 8 8 7 7 6 6 7 7 8 8 9 9 9 10 10 10 10 10 10 10 11 11 12 12 12 12 12 13 14 14 15
21 20 19 18 17 16 16 15 15 14 13 14 14 15 15 14 13 13 13 14 14 14 14 13 12 11 11 10 10 10 10 10 10 9 9 8 8 8 7 7 7 6 6 6 6 7 8 8 8 8 8 9 9 10 10 10 10 10 11 11 12 12 12 13 13 14 14 15 16
21 20 20 19 18 17 17 17 16 16 15 15 15 15 16 15 15 15 14 14 13 13 12 12 11 11 10 10 10 10 10 10 10 10 9 8 8 7 7 7 7 7 7 7 8 8 8 8 7 7 8 8 9 9 9 9 9 10 10 11 11 12 12 13 14 15 16 17 18
21 21 20 20 19 18 18 18 17 16 16 15 16 16 16 16 16 15 14 13 12 12 12 12 12 11 11 10 10 10 9 9 9 8 8 8 8 7 7 7 7 7 7 8 8 8 8 7 7 7 7 7 8 8 8 9 9 9 10 11 11 12 13 15 16 17 18 19 20
22 22 21 20 20 18 18 18 17 17 17 17 17 17 17 16 16 15 14 13 12 12 12 12 12 12 11 10 10 9 9 9 9 8 8 8 7 7 6 6 6 7 7 7 7 7 6 6 6 6 7 7 7 8 8 8 9 10 10 11 12 14 15 16 17 19 19 20 21
22 22 21 21 20 19 19 19 19 19 19 19 18 18 17 16 15 14 13 13 13 13 13 13 13 12 12 11 10 10 10 10 10 9 8 7 5 4 4 4 5 7 7 7 6 6 6 5 6 6 6 7 7 8 8 9 10 11 12 13 14 15 17 18 19 20 20 21 21
21 21 21 21 21 21 21 21 21 21 21 20 19 17 16 14 14 13 13 13 13 13 13 12 13 12 12 12 11 11 10 9 8 7 5 4 3 3 4 5 6 7 7 6 6 5 5 5 5 5 6 7 7 8 9 10 11 12 13 15 16 17 18 19 20 20 21 21 21
21 21 22 22 23 23 23 22 22 22 21 20 18 16 14 13 13 13 12 12 12 12 12 12 11 11 11 11 10 10 8 7 5 5 4 4 4 5 6 6 7 6 6 5 5 4 4 4 5 5 6 7 8 9 10 12 13 14 15 16 17 18 19 19 20 20 20 20 19
21 22 22 23 23 23 23 22 21 21 20 19 17 15 13 12 12 12 12 11 11 10 11 11 10 10 10 10 9 8 7 5 5 4 5 5 5 5 6 6 5 5 4 4 4 4 4 4 5 6 7 8 9 11 12 13 14 15 16 17 18 19 19 19 19 19 19 18 18
21 21 22 22 22 22 22 21 21 20 18 17 15 14 13 12 11 11 10 10 9 9 9 10 10 10 10 10 9 7 6 6 6 5 5 5 5 5 4 4 4 3 3 3 3 4 4 5 6 7 8 10 11 12 14 15 16 16 17 18 18 18 18 18 18 18 18 18 18
20 20 20 20 20 20 20 20 19 17 16 15 14 13 12 11 10 10 10 9 9 9 9 9 10 10 10 9 8 7 6 7 6 5 5 5 4 4 3 3 3 2 2 2 3 4 5 6 7 9 10 11 12 14 15 16 16 17 17 18 18 18 18 18 18 18 18 18 18
19 18 18 18 18 18 18 17 16 15 14 13 12 11 11 10 10 10 9 9 9 9 9 9 9 9 9 8 7 6 6 6 6 5 5 4 3 3 2 2 1 1 2 2 3 5 6 7 9 10 11 12 14 15 15 16 17 17 17 17 17 17 18 18 18 17 17 17 17
18 17 17 16 16 16 16 15 14 13 13 12 11 11 11 10 10 10 10 10 10 10 10 9 9 8 8 7 7 6 6 6 5 5 4 3 2 2 2 1 1 1 2 3 4 6 7 9 10 11 13 14 14 15 16 16 17 17 17 17 17 17 17 18 18 17 17 17 17
17 17 16 16 15 15 15 14 13 13 12 12 12 12 12 11 11 11 11 11 10 10 10 9 9 8 8 7 7 6 6 5 4 4 3 3 2 2 2 1 0 1 3 4 6 7 9 10 11 12 13 14 15 15 16 16 16 16 16 16 16 16 17 17 17 17 17 16 16
17 17 16 16 16 15 15 14 14 13 13 13 13 13 13 12 12 12 11 11 11 10 10 9 9 8 8 7 7 6 5 4 4 4 4 4 3 2 1 0 1 2 4 5 7 8 10 11 12 13 14 14 15 15 16 16 16 16 16 16 16 16 16 16 16 16 16 15 15
18 17 17 16 16 16 15 15 14 14 14 14 14 14 13 13 12 12 12 11 11 11 10 9 9 8 7 7 6 6 5 4 4 5 5 4 3 2 1 1 2 3 5 6 8 9 10 11 12 13 13 14 14 15 15 16 16 16 15 15 15 15 15 15 15 15 15 15 14
18 18 17 17 16 16 15 15 15 15 15 14 14 14 13 13 12 12 12 12 11 10 10 9 8 8 7 7 6 6 5 5 5 4 4 3 2 1 1 2 4 5 6 8 9 10 11 12 12 12 13 13 14 14 15 15 15 15 15 15 15 15 15 15 15 15 15 14 14
18 18 17 17 16 16 16 16 15 15 15 14 14 14 13 13 13 12 12 12 11 10 9 9 8 8 7 7 6 6 5 5 4 3 2 1 1 2 3 5 6 7 8 9 10 11 11 11 12 12 12 13 14 14 14 15 15 15 15 15 15 15 15 15 15 14 14 14 14
18 18 17 17 17 16 16 16 16 15 15 15 14 14 13 13 13 12 12 11 11 10 9 9 8 8 8 8 7 6 5 4 3 2 1 1 2 4 5 7 8 9 9 10 11 11 11 11 11 12 12 13 14 14 14 14 14 14 14 14 15 14 14 14 14 14 14 14 14
18 17 17 17 17 17 16 16 16 15 15 15 14 14 13 13 12 12 12 11 11 10 10 9 9 9 9 8 7 6 4 3 2 1 2 3 4 5 7 8 9 10 10 11 11 11 11 11 11 12 13 13 14 14 14 14 14 14 14 14 14 14 14 14 14 14 14 15 15
18 18 18 17 17 17 17 16 16 16 15 15 14 14 13 13 12 12 12 11 11 11 10 10 10 10 9 8 6 5 3 2 1 2 3 4 6 7 8 9 10 10 11 11 11 11 11 11 12 12 13 13 13 13 14 14 14 14 14 14 14 14 14 14 14 15 15 15 15
18 18 18 18 18 17 17 17 16 16 15 14 14 13 13 13 12 12 12 12 11 11 11 11 10 9 8 7 5 4 2 1 2 3 4 6 7 8 9 10 11 11 11 11 10 10 11 11 11 12 12 12 12 12 13 13 13 14 14 14 14 14 14 14 15 15 15 15 15
19 19 18 18 18 18 17 17 16 15 15 14 14 13 13 13 13 13 13 13 12 12 12 11 10 9 7 6 4 3 1 2 3 4 6 7 8 9 10 10 11 11 11 10 10 10 11 11 11 12 12 12 12 12 12 13 13 13 14 14 14 14 15 15 15 15 15 15 15
20 19 19 18 18 18 17 16 16 15 15 14 14 14 14 14 14 14 14 13 13 12 11 10 9 7 6 4 3 2 1 2 4 5 6 7 8 9 10 10 11 11 11 10 10 10 10 10 11 11 11 11 11 11 12 12 12 13 13 14 14 15 15 15 15 15 15 16 16
20 20 19 19 18 17 17 16 16 15 15 15 15 15 15 14 14 14 14 13 13 12 11 10 8 7 5 3 2 1 2 3 5 6 7 8 9 9 10 10 10 10 10 10 10 10 10 10 10 10 10 10 11 11 11 11 12 12 13 13 14 15 15 15 15 16 16 16 16
20 20 19 19 18 17 16 16 16 16 16 16 16 16 16 15 15 14 14 13 12 11 10 9 7 6 4 3 2 2 3 4 5 6 7 8 8 9 9 9 9 9 10 10 10 9 9 9 10 10 10 10 11 11 11 11 11 12 13 13 14 14 15 15 15 16 16 16 16
20 19 19 18 18 17 17 16 16 17 17 17 17 16 16 16 16 15 13 12 11 10 9 7 6 5 4 2 2 2 4 5 6 7 7 8 8 8 8 8 8 8 9 9 9 9 9 9 9 9 10 10 10 11 11 11 11 12 12 13 14 14 15 15 15 15 15 16 16
20 19 18 18 17 17 17 17 17 17 17 17 17 17 17 16 15 14 13 12 10 9 8 7 5 4 3 2 3 3 4 5 6 7 7 7 7 7 7 7 7 8 8 9 9 9 9 8 9 9 10 10 10 10 10 10 11 12 12 13 14 14 14 15 15 15 15 15 16
20 19 18 17 17 17 17 18 18 18 18 18 18 17 17 16 15 13 12 11 10 8 7 6 5 4 3 3 3 4 4 5 6 6 6 6 6 6 6 7 7 7 8 8 8 8 8 8 8 9 9 10 10 10 10 11 11 12 13 13 13 14 14 14 14 15 15 15 15
20 19 18 18 18 18 18 18 18 19 18 18 18 17 16 15 14 13 12 11 9 8 6 5 4 4 3 3 3 4 4 5 5 5 6 6 6 6 6 6 6 7 7 7 8 8 8 8 8 9 9 9 10 10 10 11 12 12 13 13 14 14 14 14 15 15 15 15 15
20 19 19 19 18 18 18 19 19 19 19 18 17 16 15 14 13 12 11 10 9 8 6 5 4 4 3 3 4 4 4 5 5 5 5 5 5 5 5 5 6 6 7 7 7 7 8 8 8 8 9 9 10 10 11 11 12 13 13 13 14 14 14 14 15 15 16 16 16
Wind_Direction
206 206 205 202 199 196 194 196 200 204 207 206 203 202 199 189 187 195 207 213 209 207 209 211 213 216 220 223 225 227 229 231 232 233 234 235 238 242 247 253 258 262 263 260 260 265 275 284 291 296 300 304 307 309 310 311 311 312 313 315 317 319 319 320 319 317 316 315 313
202 203 202 200 197 194 193 195 200 203 202 197 194 194 193 187 188 196 204 208 207 210 215 216 215 216 218 220 223 227 230 233 236 237 238 239 240 243 247 253 259 262 263 264 269 277 285 292 297 302 305 306 307 308 310 310 312 314 316 317 317 317 317 317 314 313 312 311 310
198 199 199 199 196 193 192 195 199 200 197 191 190 191 191 188 193 200 205 205 206 210 214 217 221 223 224 226 230 233 236 238 240 241 242 244 247 251 256 262 267 270 272 275 281 288 294 299 302 304 305 305 306 309 311 314 317 319 320 319 317 316 315 314 312 311 310 309 309
195 196 197 198 196 194 194 196 199 199 196 191 189 189 189 190 197 202 204 204 205 206 208 214 222 228 232 234 237 239 240 242 246 250 253 256 260 265 270 274 277 278 281 284 290 296 300 303 304 304 305 307 311 314 318 321 323 322 320 318 317 316 315 313 312 312 312 312 313
193 195 196 197 197 196 197 200 203 203 200 196 192 188 188 192 200 203 203 202 200 199 202 211 220 228 233 236 239 242 244 248 254 260 265 267 269 271 273 275 276 279 283 287 293 297 299 300 302 305 309 313 317 321 324 326 325 323 320 318 318 317 317 316 315 316 317 318 321
190 191 194 196 197 198 200 204 207 208 206 202 196 191 190 196 201 203 202 201 199 198 202 212 220 226 231 236 239 241 244 247 253 258 260 260 261 261 263 266 271 277 284 289 292 293 294 297 303 309 314 320 323 326 328 329 328 325 323 321 322 322 323 322 323 324 326 329 330
186 188 191 194 197 198 200 205 207 207 206 203 198 195 196 202 204 204 203 203 202 202 207 217 225 231 235 239 241 242 242 244 246 248 248 248 252 257 263 270 278 285 288 289 290 293 298 305 312 317 321 325 329 330 331 332 331 329 327 327 327 328 330 329 330 333 336 337 338
184 186 190 192 194 196 198 200 201 200 199 198 195 196 200 207 209 209 207 206 205 207 212 221 228 234 239 242 244 244 243 242 241 241 243 247 255 264 273 281 286 288 290 292 297 303 309 314 319 323 326 328 329 330 331 333 333 332 331 331 331 332 333 334 336 339 341 342 342
181 184 188 189 190 192 193 193 191 191 190 190 188 191 199 208 213 213 211 208 207 209 215 221 226 231 237 242 246 248 247 242 238 238 243 251 260 270 278 283 285 288 294 301 307 312 316 320 324 326 326 326 326 328 331 333 334 332 331 331 333 334 335 337 339 340 340 340 339
179 182 184 184 183 184 185 182 180 181 181 179 178 186 197 207 213 214 211 209 208 211 216 221 226 231 236 243 250 254 255 251 246 245 248 256 266 274 280 284 288 294 301 307 312 315 319 321 325 326 325 324 325 327 331 333 333 332 331 331 333 335 336 337 337 335 333 332 331
177 179 180 179 178 178 177 173 171 171 172 172 177 186 196 204 209 211 210 211 211 214 220 226 229 232 236 242 249 255 259 261 259 258 260 267 273 278 282 287 293 299 306 311 315 318 322 326 329 329 325 322 324 328 332 333 333 333 332 332 333 334 335 333 331 329 327 326 325
176 177 178 177 177 175 173 170 167 167 169 173 179 188 196 203 207 210 213 216 217 220 225 230 232 234 236 239 244 251 258 264 268 270 272 275 277 279 283 288 294 300 308 315 320 324 328 331 330 326 322 320 325 330 333 334 333 332 331 332 332 333 332 331 328 326 324 324 323
175 175 176 177 178 176 174 170 168 169 173 178 184 191 198 203 209 213 218 221 222 224 228 232 235 237 237 239 243 250 259 266 271 273 274 274 275 277 282 289 295 305 315 323 325 328 330 330 326 324 323 325 327 329 330 331 330 330 330 330 330 330 328 327 325 324 324 323 321
177 177 178 180 180 178 175 172 171 173 178 183 191 197 202 207 212 217 220 224 225 227 230 233 236 237 238 240 244 250 257 262 267 269 269 270 273 279 287 297 307 316 323 325 327 327 328 325 323 323 324 325 325 325 326 327 328 329 329 329 328 327 326 325 324 323 322 321 319
179 181 182 183 182 177 172 171 174 179 185 190 198 204 208 213 217 220 222 224 226 228 230 233 235 236 238 238 241 245 250 254 258 261 264 270 279 290 302 313 318 319 320 320 320 320 319 318 317 318 319 321 323 324 325 327 329 329 329 328 327 326 325 323 322 320 319 318 317
182 183 184 184 181 176 173 174 180 187 193 199 204 208 212 216 219 221 222 224 226 229 231 233 235 236 237 238 240 245 250 255 259 263 271 281 293 304 311 312 309 309 309 311 312 313 314 313 314 316 319 321 324 326 328 329 330 329 328 326 325 324 322 321 319 318 317 316 316
181 182 182 182 181 180 180 183 187 192 198 203 207 210 213 216 218 220 223 226 229 231 233 236 238 240 242 245 249 252 255 258 264 270 278 284 288 292 293 293 296 299 302 306 308 310 313 313 316 318 322 324 326 327 328 328 328 327 326 324 322 321 320 318 317 316 316 316 317
179 180 181 183 184 185 187 189 192 195 200 204 207 210 212 215 217 221 225 229 232 234 235 238 241 244 246 248 250 251 254 257 261 263 261 261 265 274 281 287 292 297 301 304 307 310 315 317 321 325 327 328 328 328 327 327 326 324 323 321 320 319 318 317 317 317 318 319 320
179 181 183 185 187 189 190 192 195 197 201 205 208 210 212 215 219 223 227 230 233 235 237 239 241 241 241 240 238 238 240 241 242 242 246 252 263 271 277 282 288 293 298 304 309 316 321 325 329 330 330 329 328 326 325 324 323 321 320 319 318 318 318 318 319 320 322 324 326
181 183 185 187 189 190 192 194 197 200 203 207 210 212 214 217 221 225 229 232 233 234 235 235 234 232 230 229 226 224 224 229 231 236 244 253 261 266 271 277 282 290 297 308 317 324 329 331 331 330 329 327 326 324 322 321 320 319 319 318 318 318 319 321 323 325 328 330 333
183 185 186 188 190 192 194 196 200 203 207 210 212 214 216 219 221 225 228 230 229 227 227 225 224 222 222 223 220 213 214 225 229 233 241 251 255 260 264 270 277 288 303 316 326 331 332 332 330 328 326 324 323 321 320 319 318 319 319 320 321 322 324 326 329 332 335 337 339
183 185 186 188 191 193 195 198 201 204 207 209 211 212 214 216 217 218 219 220 219 217 216 216 215 215 216 216 213 210 213 222 227 233 239 244 247 248 251 257 266 291 314 328 332 333 331 329 327 325 323 321 320 319 318 319 319 321 322 324 326 328 330 332 335 339 342 344 345
180 182 184 187 189 192 194 196 199 201 203 203 205 206 207 208 208 209 209 209 209 208 208 208 208 208 208 209 210 213 217 223 227 230 232 230 225 221 220 223 245 313 332 334 333 331 329 327 324 323 321 320 319 319 320 321 323 325 327 329 331 334 336 338 341 345 348 349 350
176 178 180 182 185 187 189 191 193 194 196 197 199 200 201 202 203 204 204 204 204 203 204 203 203 203 203 206 209 213 218 220 220 213 204 196 189 188 185 190 280 333 333 332 330 328 326 324 322 321 321 321 321 322 324 325 328 330 332 334 337 340 343 345 347 350 352 353 353
173 174 176 178 180 182 184 186 188 189 191 194 196 198 200 201 202 203 203 202 202 201 200 199 199 199 201 203 207 211 212 209 197 182 170 169 170 171 174 193 315 327 329 329 327 325 324 323 323 323 324 324 326 327 328 330 333 335 338 340 344 347 350 352 352 354 355 356 355
171 172 174 175 177 179 181 183 185 188 191 194 197 199 201 202 203 203 203 201 199 198 197 195 194 195 197 199 202 203 199 188 174 165 161 161 164 168 188 278 314 322 325 326 326 325 325 325 325 326 327 329 330 331 333 334 337 341 344 347 350 354 356 357 358 358 359 358 357
170 172 173 174 176 178 180 183 186 189 193 196 199 201 202 202 202 201 201 199 197 194 193 192 191 191 192 194 193 189 182 171 164 160 160 165 172 197 276 309 318 323 325 327 327 328 328 329 330 331 332 333 334 335 337 339 343 347 351 354 357 359 0 0 1 1 2 1 359
171 172 173 175 177 179 182 185 187 190 193 196 198 200 200 200 199 198 197 195 194 191 189 187 186 186 185 183 180 176 170 164 160 161 166 184 259 306 318 323 325 327 329 331 332 332 333 334 335 336 337 338 339 340 342 345 349 353 357 0 2 4 4 3 4 4 4 3 1
172 174 175 177 179 181 184 186 189 191 193 195 197 197 197 196 195 194 192 191 188 186 184 181 179 178 176 173 171 168 165 163 164 171 212 299 318 323 327 328 329 330 332 334 336 337 338 339 340 341 342 342 344 345 348 352 356 0 3 5 6 7 7 6 6 6 6 4 2
175 176 178 180 181 183 185 187 189 190 192 193 193 193 192 192 190 188 186 184 182 179 177 175 173 171 168 167 165 165 165 168 180 242 305 317 323 327 329 330 330 332 334 337 340 342 343 344 345 346 346 347 349 351 354 358 1 5 7 7 8 9 9 8 7 7 6 4 2
177 179 181 182 183 184 185 187 188 189 190 190 189 188 187 185 183 182 181 179 177 174 171 170 168 165 163 162 162 163 167 185 249 300 315 322 326 328 329 331 332 333 337 341 346 347 348 349 350 350 350 352 354 356 360 3 6 8 9 8 9 10 10 9 8 7 6 4 1
180 182 183 184 185 185 185 186 186 187 186 186 184 183 182 180 179 178 177 175 173 170 167 165 164 162 160 159 160 164 178 236 292 311 319 323 326 328 330 332 332 334 339 346 352 353 353 353 353 354 355 357 360 3 5 8 10 10 9 9 9 10 10 9 8 7 5 3 1
182 183 184 185 185 185 184 184 184 183 183 181 180 179 178 177 176 174 173 171 169 166 163 162 161 159 159 158 160 169 204 279 304 314 319 322 325 328 330 333 334 336 342 351 358 358 357 356 356 357 359 2 6 8 10 12 12 11 10 9 9 10 10 9 8 6 5 3 1
183 184 185 185 185 184 184 183 182 181 179 178 176 175 175 174 172 170 168 166 165 163 161 159 159 158 158 159 165 185 254 293 306 313 318 321 325 328 331 334 335 338 345 355 2 3 1 359 0 2 5 9 12 14 15 15 14 12 11 10 10 10 11 9 8 6 4 2 1
184 184 184 185 184 184 182 181 179 178 177 175 173 172 171 171 169 167 165 164 163 162 160 160 160 161 161 165 178 228 277 295 304 311 317 320 324 328 332 336 338 341 348 357 5 7 5 3 5 8 12 16 18 18 18 18 15 13 12 12 12 12 11 9 7 5 4 2 1
184 184 184 184 183 182 180 178 177 176 175 173 171 170 168 167 166 165 163 163 163 163 161 161 161 163 165 171 198 251 280 294 303 311 316 320 325 329 334 338 341 345 351 359 6 9 9 9 12 15 18 21 21 21 20 19 16 14 13 14 14 13 12 10 8 6 3 2 2
184 184 184 183 181 180 178 177 176 174 173 171 169 167 166 165 164 163 164 165 165 164 163 162 163 165 171 187 222 261 281 293 304 312 317 321 326 331 336 341 345 350 355 1 8 12 15 16 19 21 23 24 24 23 21 18 16 15 16 16 16 15 13 12 10 7 4 3 3
183 183 183 181 180 178 177 175 174 173 171 169 167 166 166 165 164 164 164 165 166 166 166 166 168 173 185 209 241 267 283 295 305 313 318 322 327 332 339 346 350 354 358 4 11 16 20 23 25 26 26 26 25 23 20 17 17 18 20 20 18 16 15 14 12 10 7 5 5
181 181 181 180 179 177 175 174 172 171 169 168 167 166 166 166 165 164 164 166 167 169 170 172 176 184 201 228 254 272 285 295 304 311 316 321 327 335 344 351 355 358 1 7 15 22 27 29 30 29 28 27 26 23 21 19 20 22 24 23 21 18 16 15 13 12 11 9 8
180 179 179 179 178 176 174 172 170 169 169 168 167 166 166 166 166 166 166 167 169 172 176 179 185 197 216 240 261 275 286 294 300 306 313 320 330 340 350 357 0 3 6 12 21 30 35 36 35 32 30 28 27 25 24 23 25 27 27 26 24 21 18 17 15 15 13 12 11
178 177 177 177 177 175 173 170 169 168 168 168 167 166 166 167 168 169 169 170 172 175 179 186 195 208 226 246 264 277 284 289 295 303 312 323 336 347 356 3 6 8 11 18 28 37 43 43 39 35 32 30 30 29 28 28 29 30 30 29 27 24 21 19 18 17 16 14 13
Height
1509 1510 1511 1512 1514 1515 1516 1517 1518 1518 1519 1520 1521 1521 1522 1523 1524 1524 1524 1524 1525 1526 1526 1526 1526 1527 1527 1528 1528 1529 1529 1529 1530 1530 1530 1531 1531 1530 1530 1530 1531 1532 1533 1532 1532 1531 1531 1531 1531 1531 1531 1530 1530 1529 1529 1528 1528 1527 1527 1526 1526 1525 1524 1524 1523 1522 1522 1521 1521
1508 1510 1511 1512 1513 1514 1515 1516 1517 1518 1519 1520 1520 1521 1522 1523 1523 1523 1523 1524 1525 1525 1525 1526 1526 1526 1527 1527 1527 1528 1528 1529 1529 1530 1530 1530 1529 1529 1530 1530 1531 1532 1532 1532 1531 1531 1531 1531 1530 1530 1530 1529 1529 1528 1528 1527 1527 1526 1526 1525 1525 1524 1523 1523 1522 1521 1521 1520 1520
1508 1509 1510 1511 1512 1513 1514 1515 1516 1517 1518 1519 1520 1521 1521 1522 1522 1522 1522 1523 1524 1525 1525 1525 1525 1526 1526 1527 1527 1527 1528 1528 1528 1528 1528 1528 1528 1529 1529 1530 1531 1531 1531 1531 1530 1530 1530 1530 1529 1529 1529 1528 1528 1528 1527 1526 1526 1526 1525 1524 1524 1523 1522 1522 1521 1521 1520 1519 1519
1507 1508 1509 1510 1511 1512 1513 1514 1515 1516 1517 1518 1519 1520 1521 1521 1521 1522 1522 1523 1524 1524 1524 1525 1525 1525 1526 1526 1526 1527 1527 1527 1527 1528 1528 1528 1528 1529 1529 1530 1530 1529 1529 1529 1530 1529 1529 1529 1529 1529 1528 1527 1527 1527 1526 1526 1525 1525 1524 1523 1522 1522 1521 1521 1520 1520 1519 1518 1517
1507 1508 1509 1510 1511 1511 1512 1513 1514 1515 1516 1517 1518 1519 1520 1520 1521 1521 1522 1523 1523 1524 1524 1524 1524 1525 1526 1526 1526 1526 1526 1527 1527 1528 1528 1528 1528 1529 1529 1529 1529 1529 1529 1529 1529 1529 1529 1529 1528 1528 1527 1527 1526 1526 1525 1525 1524 1523 1522 1522 1521 1521 1521 1520 1519 1519 1518 1517 1516
1506 1507 1508 1509 1510 1511 1512 1513 1514 1515 1516 1517 1518 1518 1519 1519 1520 1521 1521 1522 1523 1523 1523 1523 1524 1525 1525 1525 1525 1526 1526 1527 1528 1528 1528 1528 1528 1528 1528 1528 1528 1528 1528 1528 1528 1528 1528 1527 1527 1527 1526 1526 1525 1524 1524 1523 1523 1522 1521 1521 1520 1520 1519 1519 1518 1517 1517 1516 1516
1506 1507 1508 1509 1509 1510 1511 1512 1513 1514 1515 1516 1517 1518 1518 1518 1519 1520 1521 1521 1522 1523 1523 1523 1524 1524 1524 1524 1524 1525 1526 1527 1527 1528 1528 1528 1528 1527 1527 1527 1528 1528 1528 1527 1527 1527 1527 1526 1526 1526 1525 1525 1524 1523 1523 1522 1522 1521 1521 1520 1519 1519 1518 1518 1517 1516 1516 1515 1514
1506 1507 1508 1508 1509 1510 1511 1512 1513 1514 1515 1516 1516 1517 1518 1518 1519 1519 1520 1521 1522 1522 1523 1523 1524 1523 1523 1523 1523 1524 1526 1527 1527 1527 1527 1527 1527 1527 1527 1527 1527 1527 1527 1526 1526 1526 1526 1526 1525 1525 1524 1524 1523 1523 1522 1522 1521 1521 1520 1520 1519 1518 1517 1517 1516 1516 1515 1514 1513
1506 1507 1507 1508 1509 1510 1511 1512 1512 1513 1514 1515 1516 1517 1517 1517 1518 1519 1520 1521 1522 1522 1522 1522 1522 1522 1522 1522 1523 1524 1525 1526 1526 1527 1527 1527 1527 1527 1527 1526 1526 1526 1526 1526 1526 1525 1525 1525 1524 1524 1523 1523 1523 1522 1522 1521 1521 1520 1520 1519 1518 1518 1517 1516 1516 1515 1514 1514 1513
1505 1506 1507 1507 1508 1509 1511 1511 1512 1513 1514 1515 1516 1516 1516 1517 1517 1518 1520 1520 1521 1521 1521 1521 1521 1522 1522 1523 1523 1524 1525 1525 1526 1526 1526 1526 1526 1526 1526 1526 1526 1526 1525 1525 1525 1525 1524 1524 1524 1523 1523 1522 1522 1522 1521 1521 1521 1520 1519 1519 1518 1517 1517 1516 1516 1515 1515 1514 1513
1504 1505 1506 1507 1508 1509 1510 1511 1512 1513 1514 1515 1516 1516 1516 1516 1517 1518 1519 1519 1519 1520 1520 1521 1521 1522 1523 1523 1524 1524 1524 1525 1525 1525 1526 1526 1525 1525 1525 1525 1525 1525 1525 1524 1524 1524 1524 1523 1523 1522 1522 1522 1521 1521 1521 1520 1520 1519 1519 1518 1517 1517 1516 1516 1516 1515 1514 1514 1513
1504 1505 1506 1507 1508 1509 1510 1511 1512 1513 1514 1514 1514 1515 1515 1516 1516 1517 1517 1518 1518 1519 1520 1521 1521 1522 1523 1523 1524 1524 1524 1524 1524 1524 1524 1525 1524 1524 1524 1524 1524 1524 1524 1524 1523 1523 1523 1523 1522 1522 1521 1521 1521 1520 1520 1520 1519 1519 1518 1518 1517 1517 1516 1516 1515 1514 1514 1513 1512
1503 1504 1505 1506 1507 1508 1510 1511 1512 1512 1513 1513 1513 1514 1514 1515 1516 1516 1517 1517 1518 1519 1520 1521 1521 1522 1522 1523 1523 1523 1523 1523 1523 1523 1523 1523 1523 1523 1523 1523 1523 1523 1523 1523 1522 1522 1522 1522 1522 1521 1521 1521 1520 1520 1520 1519 1519 1519 1518 1517 1517 1516 1516 1515 1514 1513 1513 1512 1511
1502 1503 1505 1506 1507 1508 1509 1511 1511 1512 1512 1512 1512 1513 1513 1514 1515 1516 1516 1517 1518 1519 1520 1520 1521 1521 1522 1522 1522 1522 1522 1522 1522 1522 1522 1522 1522 1522 1522 1522 1522 1522 1522 1522 1522 1522 1522 1521 1521 1521 1521 1520 1520 1520 1519 1519 1519 1518 1518 1517 1516 1516 1515 1514 1513 1513 1512 1511 1510
1502 1503 1504 1505 1506 1508 1509 1510 1511 1511 1511 1511 1511 1512 1513 1513 1515 1516 1516 1517 1518 1518 1519 1520 1520 1521 1521 1521 1522 1521 1521 1521 1521 1521 1521 1521 1521 1522 1522 1522 1522 1522 1522 1522 1522 1522 1521 1521 1521 1521 1520 1520 1520 1519 1519 1519 1518 1518 1517 1516 1516 1515 1514 1513 1512 1512 1511 1510 1509
1501 1502 1503 1505 1506 1507 1508 1509 1509 1509 1510 1510 1511 1511 1512 1513 1514 1515 1516 1517 1517 1518 1518 1519 1519 1520 1520 1521 1521 1521 1521 1521 1521 1521 1521 1521 1521 1521 1521 1521 1521 1521 1521 1521 1521 1521 1521 1521 1521 1520 1520 1519 1519 1519 1518 1518 1518 1517 1516 1516 1515 1514 1513 1512 1512 1511 1510 1509 1508
1501 1502 1503 1504 1506 1506 1507 1507 1507 1508 1509 1510 1511 1511 1512 1513 1514 1515 1516 1516 1516 1517 1518 1518 1519 1519 1520 1520 1520 1520 1521 1521 1521 1521 1521 1521 1521 1521 1521 1521 1521 1521 1521 1521 1521 1521 1521 1520 1520 1520 1519 1519 1519 1518 1518 1517 1517 1516 1516 1515 1514 1513 1512 1511 1511 1510 1509 1508 1507
1500 1501 1502 1503 1504 1505 1506 1506 1507 1508 1509 1510 1511 1511 1512 1513 1514 1514 1515 1515 1516 1516 1517 1518 1518 1519 1519 1520 1520 1520 1520 1520 1520 1520 1521 1521 1521 1521 1521 1521 1521 1521 1521 1521 1520 1520 1520 1520 1520 1519 1519 1519 1518 1518 1517 1517 1516 1516 1515 1514 1513 1512 1511 1511 1510 1509 1508 1507 1506
1500 1500 1501 1502 1503 1504 1505 1506 1507 1508 1509 1510 1511 1511 1512 1512 1513 1513 1514 1515 1516 1516 1517 1517 1518 1518 1519 1519 1519 1519 1519 1520 1520 1520 1520 1520 1520 1520 1520 1520 1520 1520 1520 1520 1520 1520 1520 1519 1519 1519 1518 1518 1517 1517 1516 1516 1515 1515 1514 1513 1512 1511 1511 1510 1509 1508 1507 1506 1505
1499 1499 1500 1501 1502 1504 1505 1506 1506 1507 1508 1509 1510 1511 1511 1512 1513 1513 1514 1515 1515 1516 1516 1517 1517 1518 1518 1518 1518 1518 1519 1519 1519 1519 1519 1520 1520 1520 1520 1520 1520 1520 1520 1520 1519 1519 1519 1519 1519 1518 1518 1517 1517 1516 1516 1515 1514 1514 1513 1512 1511 1510 1509 1508 1507 1506 1506 1505 1504
1498 1499 1500 1501 1502 1503 1504 1506 1506 1507 1508 1509 1510 1511 1511 1512 1512 1513 1514 1514 1515 1516 1516 1516 1516 1517 1517 1517 1518 1518 1518 1518 1519 1519 1519 1519 1519 1519 1519 1519 1519 1519 1519 1519 1519 1519 1519 1518 1518 1518 1517 1517 1516 1516 1515 1514 1513 1513 1512 1511 1510 1509 1508 1507 1506 1506 1504 1503 1502
1498 1499 1500 1501 1502 1503 1504 1505 1506 1507 1508 1509 1510 1510 1511 1512 1512 1513 1513 1514 1514 1515 1515 1516 1516 1516 1516 1517 1517 1517 1518 1518 1518 1518 1518 1519 1519 1519 1519 1519 1519 1519 1519 1519 1519 1519 1518 1518 1517 1517 1516 1516 1515 1515 1514 1513 1512 1512 1511 1510 1509 1508 1507 1506 1505 1504 1503 1502 1501
1498 1499 1500 1501 1502 1503 1504 1505 1506 1507 1508 1508 1509 1510 1511 1511 1512 1512 1513 1513 1514 1514 1515 1515 1516 1516 1516 1516 1516 1517 1517 1517 1517 1518 1518 1518 1518 1519 1519 1519 1519 1519 1519 1519 1518 1518 1518 1517 1517 1516 1516 1515 1514 1514 1513 1512 1511 1511 1510 1509 1508 1507 1506 1505 1504 1503 1502 1501 1501
1497 1498 1500 1501 1501 1503 1504 1505 1506 1506 1507 1508 1509 1510 1510 1511 1511 1512 1512 1513 1513 1514 1514 1515 1515 1515 1516 1516 1516 1516 1516 1517 1517 1517 1518 1518 1518 1518 1518 1518 1519 1519 1518 1518 1518 1517 1517 1516 1516 1515 1515 1514 1513 1512 1512 1511 1511 1510 1509 1508 1507 1506 1505 1504 1503 1502 1502 1501 1500
1497 1498 1499 1500 1501 1502 1503 1504 1505 1506 1507 1508 1508 1509 1510 1510 1511 1511 1512 1512 1513 1513 1514 1514 1514 1515 1515 1515 1516 1516 1516 1516 1517 1517 1518 1518 1518 1518 1518 1518 1518 1518 1518 1518 1517 1517 1516 1516 1515 1514 1514 1513 1512 1511 1511 1510 1509 1509 1508 1507 1506 1506 1505 1504 1503 1502 1501 1501 1500
1497 1498 1499 1500 1501 1502 1503 1504 1505 1506 1506 1507 1508 1508 1509 1510 1510 1511 1511 1512 1512 1513 1513 1514 1514 1514 1515 1515 1515 1515 1516 1516 1517 1517 1518 1518 1518 1518 1518 1518 1518 1518 1518 1517 1517 1516 1516 1515 1514 1514 1513 1512 1511 1511 1510 1509 1509 1508 1507 1506 1506 1505 1504 1503 1503 1502 1501 1500 1500
1496 1497 1498 1499 1501 1501 1502 1503 1504 1505 1506 1506 1507 1508 1509 1509 1510 1510 1511 1511 1512 1512 1513 1513 1514 1514 1514 1515 1515 1515 1516 1516 1516 1517 1517 1517 1517 1517 1517 1517 1517 1517 1517 1516 1516 1516 1515 1514 1513 1513 1512 1511 1511 1510 1509 1508 1508 1507 1506 1506 1505 1504 1504 1503 1502 1501 1501 1500 1499
1496 1497 1498 1499 1500 1501 1502 1503 1504 1505 1506 1506 1507 1507 1508 1509 1509 1510 1510 1511 1511 1512 1512 1513 1513 1514 1514 1514 1515 1515 1515 1516 1516 1516 1517 1517 1517 1517 1517 1517 1516 1516 1516 1516 1515 1515 1514 1513 1512 1512 1511 1511 1510 1509 1508 1508 1507 1506 1506 1505 1505 1504 1503 1502 1502 1501 1501 1500 1499
1496 1496 1497 1499 1500 1501 1501 1502 1503 1504 1505 1506 1506 1507 1508 1508 1509 1509 1510 1511 1511 1512 1512 1513 1513 1514 1514 1514 1515 1515 1515 1516 1516 1516 1516 1516 1516 1516 1516 1516 1516 1516 1515 1515 1514 1514 1513 1512 1512 1511 1511 1510 1509 1508 1508 1507 1506 1506 1505 1505 1504 1503 1503 1502 1501 1501 1500 1499 1499
1495 1496 1497 1498 1499 1500 1501 1502 1503 1504 1504 1505 1506 1506 1507 1508 1508 1509 1510 1511 1511 1512 1512 1513 1513 1513 1514 1514 1514 1515 1515 1515 1515 1516 1516 1516 1516 1516 1515 1515 1515 1515 1515 1514 1514 1513 1512 1512 1511 1510 1510 1509 1508 1507 1507 1506 1506 1505 1505 1504 1504 1503 1502 1502 1501 1500 1500 1499 1498
1495 1496 1496 1498 1499 1500 1501 1501 1502 1503 1504 1505 1505 1506 1507 1507 1508 1509 1510 1510 1511 1511 1512 1513 1513 1513 1514 1514 1514 1514 1514 1515 1515 1515 1515 1515 1515 1515 1515 1514 1514 1514 1514 1513 1513 1512 1511 1511 1511 1510 1509 1509 1508 1507 1506 1506 1506 1505 1505 1504 1503 1503 1502 1501 1501 1500 1499 1499 1498
1494 1495 1496 1497 1498 1499 1500 1501 1502 1503 1503 1504 1505 1506 1506 1507 1508 1509 1510 1510 1511 1511 1512 1512 1513 1513 1513 1514 1514 1514 1514 1514 1514 1514 1514 1514 1514 1514 1514 1514 1513 1513 1513 1513 1512 1511 1511 1511 1510 1509 1509 1508 1508 1507 1506 1506 1505 1505 1504 1504 1503 1503 1502 1501 1501 1500 1499 1498 1498
1493 1495 1496 1496 1497 1498 1499 1500 1501 1502 1503 1504 1505 1506 1506 1507 1508 1508 1509 1510 1511 1511 1512 1512 1513 1513 1513 1513 1513 1514 1514 1514 1514 1514 1514 1514 1514 1513 1513 1513 1513 1512 1512 1512 1512 1511 1511 1510 1510 1509 1509 1508 1507 1507 1506 1506 1505 1505 1504 1504 1503 1502 1501 1501 1500 1499 1499 1498 1497
1493 1494 1495 1496 1497 1498 1499 1500 1501 1502 1503 1504 1505 1505 1506 1507 1507 1508 1509 1510 1511 1511 1512 1512 1512 1513 1513 1513 1513 1513 1513 1513 1513 1513 1513 1513 1513 1513 1513 1512 1512 1512 1512 1511 1511 1511 1510 1510 1509 1509 1508 1508 1507 1507 1506 1506 1505 1505 1504 1503 1503 1502 1501 1501 1500 1499 1498 1497 1497
1492 1493 1494 1495 1496 1497 1498 1500 1501 1501 1502 1503 1504 1505 1506 1506 1507 1508 1509 1510 1510 1511 1511 1512 1512 1512 1512 1513 1513 1513 1513 1512 1512 1512 1512 1512 1512 1512 1512 1512 1511 1511 1511 1511 1511 1511 1510 1510 1509 1509 1508 1508 1507 1507 1506 1506 1506 1505 1504 1503 1502 1501 1501 1500 1499 1498 1498 1497 1496
1491 1492 1494 1495 1496 1497 1498 1499 1500 1501 1502 1503 1504 1504 1506 1506 1507 1508 1509 1510 1510 1511 1511 1511 1512 1512 1512 1512 1512 1512 1512 1512 1512 1512 1512 1512 1512 1512 1512 1511 1511 1511 1511 1511 1511 1510 1510 1509 1509 1509 1508 1508 1507 1507 1506 1506 1506 1505 1504 1503 1502 1501 1501 1500 1499 1498 1497 1496 1496
1491 1492 1493 1494 1496 1496 1498 1499 1500 1501 1501 1502 1503 1504 1505 1506 1507 1508 1509 1509 1510 1510 1511 1511 1511 1511 1511 1512 1512 1511 1511 1511 1511 1511 1511 1511 1511 1511 1511 1511 1511 1511 1510 1510 1510 1510 1510 1509 1509 1509 1508 1508 1507 1507 1506 1506 1506 1505 1504 1503 1502 1501 1501 1500 1499 1498 1497 1496 1495
1491 1492 1493 1494 1495 1496 1497 1498 1499 1500 1501 1502 1503 1504 1505 1506 1507 1507 1508 1509 1510 1510 1510 1511 1511 1511 1511 1511 1511 1511 1511 1511 1511 1511 1511 1511 1511 1511 1511 1511 1510 1510 1510 1510 1510 1510 1509 1509 1509 1509 1508 1508 1507 1507 1507 1506 1505 1505 1504 1503 1502 1501 1501 1500 1499 1498 1497 1496 1495
1490 1491 1493 1494 1495 1496 1497 1498 1499 1500 1501 1502 1503 1504 1505 1506 1506 1507 1508 1509 1509 1510 1510 1510 1510 1511 1511 1511 1511 1511 1511 1511 1511 1511 1511 1510 1511 1511 1510 1510 1510 1510 1510 1510 1510 1509 1509 1509 1509 1508 1508 1508 1508 1507 1507 1506 1505 1504 1504 1503 1502 1501 1501 1500 1499 1498 1497 1496 1495
1490 1491 1492 1493 1494 1495 1496 1497 1498 1500 1501 1501 1502 1503 1505 1505 1506 1507 1508 1508 1509 1509 1509 1510 1510 1510 1510 1510 1510 1510 1510 1510 1510 1510 1510 1510 1510 1510 1510 1510 1510 1509 1509 1509 1509 1509 1509 1509 1509 1508 1508 1508 1507 1507 1506 1506 1505 1504 1504 1503 1502 1501 1500 1500 1499 1498 1497 1496 1495
1489 1491 1492 1493 1494 1495 1496 1497 1498 1499 1501 1501 1502 1503 1504 1505 1506 1506 1507 1508 1508 1509 1509 1509 1509 1509 1510 1510 1510 1509 1509 1509 1509 1509 1509 1509 1510 1510 1510 1509 1509 1509 1509 1509 1509 1509 1509 1509 1509 1508 1508 1508 1507 1507 1506 1506 1505 1504 1503 1503 1502 1501 1500 1499 1498 1498 1496 1496 1495